Weather History for KCKC - August, 2014

Change the Weather History Date:

Monday, August 11, 2014

  Actual Average Record
Temperature  
Mean Temperature 58 °F -  
Max Temperature 66 °F 69 °F 78 °F (2002)
Min Temperature 50 °F 48 °F 33 °F (1997)
Degree Days  
Heating Degree Days 7    
Growing Degree Days 8 (Base 50)    
Moisture  
Dew Point 54 °F    
Average Humidity 82    
Maximum Humidity 88    
Minimum Humidity 68    
Precipitation  
Precipitation 0.36 in - - ()
Sea Level Pressure  
Sea Level Pressure 30.05 in    
Wind  
Wind Speed 4 mph (North)    
Max Wind Speed 17 mph    
Max Gust Speed 21 mph    
Visibility 9 miles    
Events Rain    
Averages and records for this station are not official NWS values.
T = Trace of Precipitation, MM = Missing Value Source: NWS Daily Summary

Daily Weather History Graph

Daily Weather History Graph

Search for Another Location

Airport or City:

Astronomy

Aug. 11, 2014 Rise Set
Actual Time 5:51 AM CDT 8:21 PM CDT
Civil Twilight 5:16 AM CDT 8:55 PM CDT
Nautical Twilight 4:32 AM CDT 9:39 PM CDT
Astronomical Twilight 3:42 AM CDT 10:29 PM CDT
Moon 8:37 PM CDT (8/11) 7:05 AM CDT (8/11)
Length of Visible Light 15h 38m
Length of Day
14h 29m
Full, 99% of the Moon is Illuminated
Aug 11
Full
Aug 17
Last Quarter
Aug 25
New
Sep 2
First Quarter
Sep 8
Full

Hourly Weather History & Observations

Time (CDT) Temp. Dew Point Humidity Pressure Visibility Wind Dir Wind Speed Gust Speed Precip Events Conditions
12:14 AM 62.6 °F 59.0 °F 88% 30.05 in 5.0 mi Calm Calm - N/A   Drizzle
12:33 AM 62.6 °F 59.0 °F 88% 30.04 in 4.0 mi Calm Calm - 0.01 in Rain Rain
12:53 AM 62.6 °F 59.0 °F 88% 30.03 in 2.5 mi Calm Calm - 0.01 in Rain Rain
1:14 AM 62.6 °F 59.0 °F 88% 30.02 in 3.0 mi Calm Calm - N/A   Light Drizzle
1:33 AM 62.6 °F 57.2 °F 82% 30.02 in 2.5 mi Calm Calm - 0.01 in   Light Drizzle
1:53 AM 62.6 °F 57.2 °F 82% 30.02 in 3.0 mi Calm Calm - 0.01 in   Overcast
2:14 AM 62.6 °F 57.2 °F 82% 30.02 in 3.0 mi Calm Calm - N/A   Mostly Cloudy
2:33 AM 62.6 °F 59.0 °F 88% 30.02 in 4.0 mi Calm Calm - N/A   Scattered Clouds
2:53 AM 62.6 °F 57.2 °F 82% 30.01 in 5.0 mi Calm Calm - N/A   Mostly Cloudy
3:13 AM 60.8 °F 57.2 °F 88% 30.01 in 5.0 mi Calm Calm - N/A Rain Rain
3:34 AM 60.8 °F 57.2 °F 88% 30.01 in 5.0 mi Calm Calm - 0.01 in Rain Light Rain
3:53 AM 60.8 °F 57.2 °F 88% 30.01 in 5.0 mi NNW 4.6 mph - 0.02 in   Drizzle
4:14 AM 60.8 °F 57.2 °F 88% 30.01 in 5.0 mi NNW 4.6 mph - N/A Rain Light Rain
4:33 AM 60.8 °F 55.4 °F 82% 30.01 in 7.0 mi Calm Calm - 0.01 in Rain Light Rain
4:53 AM 60.8 °F 55.4 °F 82% 30.00 in 5.0 mi NNW 3.5 mph - 0.05 in Rain Rain
5:14 AM 60.8 °F 55.4 °F 82% 30.01 in 7.0 mi NNW 4.6 mph - 0.03 in Rain Light Rain
5:33 AM 59.0 °F 55.4 °F 88% 30.01 in 10.0 mi NNW 4.6 mph - 0.04 in Rain Rain
5:54 AM 59.0 °F 55.4 °F 88% 30.02 in 10.0 mi NNW 4.6 mph - 0.05 in Rain Rain
6:13 AM 59.0 °F 55.4 °F 88% 30.01 in 7.0 mi NNW 4.6 mph - 0.02 in Rain Rain
6:33 AM 59.0 °F 55.4 °F 88% 30.01 in 10.0 mi NNE 4.6 mph - 0.07 in Rain Rain
6:53 AM 59.0 °F 55.4 °F 88% 30.01 in 10.0 mi NNW 5.8 mph - 0.11 in Rain Rain
7:14 AM 59.0 °F 55.4 °F 88% 30.02 in 10.0 mi NNW 3.5 mph - 0.02 in Rain Light Rain
7:33 AM 59.0 °F 55.4 °F 88% 30.03 in 7.0 mi North 5.8 mph - 0.03 in Rain Rain
7:54 AM 59.0 °F 55.4 °F 88% 30.02 in 10.0 mi North 3.5 mph - 0.10 in Rain Light Rain
8:13 AM 59.0 °F 55.4 °F 88% 30.03 in 10.0 mi North 6.9 mph - N/A   Light Drizzle
8:34 AM 59.0 °F 55.4 °F 88% 30.03 in 10.0 mi NNW 6.9 mph - N/A   Mostly Cloudy
8:53 AM 60.8 °F 55.4 °F 82% 30.03 in 10.0 mi North 9.2 mph - N/A   Scattered Clouds
9:13 AM 60.8 °F 55.4 °F 82% 30.03 in 10.0 mi North 6.9 mph - N/A   Mostly Cloudy
9:34 AM 60.8 °F 55.4 °F 82% 30.03 in 10.0 mi NNE 6.9 mph - N/A   Scattered Clouds
9:53 AM 60.8 °F 55.4 °F 82% 30.04 in 10.0 mi NNW 5.8 mph - N/A   Clear
10:14 AM 60.8 °F 55.4 °F 82% 30.05 in 10.0 mi North 8.1 mph - N/A   Mostly Cloudy
10:34 AM 60.8 °F 55.4 °F 82% 30.05 in 10.0 mi North 9.2 mph - N/A   Mostly Cloudy
10:53 AM 60.8 °F 55.4 °F 82% 30.05 in 10.0 mi North 9.2 mph 17.3 mph N/A   Scattered Clouds
11:13 AM 62.6 °F 55.4 °F 77% 30.05 in 10.0 mi North 10.4 mph - N/A   Clear
11:34 AM 62.6 °F 55.4 °F 77% 30.05 in 10.0 mi North 12.7 mph 17.3 mph N/A   Scattered Clouds
11:53 AM 62.6 °F 55.4 °F 77% 30.05 in 10.0 mi North 13.8 mph 20.7 mph N/A   Scattered Clouds
12:14 PM 64.4 °F 55.4 °F 73% 30.05 in 10.0 mi NNE 9.2 mph 18.4 mph N/A   Clear
12:33 PM 64.4 °F 55.4 °F 73% 30.05 in 10.0 mi North 10.4 mph 17.3 mph N/A   Scattered Clouds
12:53 PM 66.2 °F 55.4 °F 68% 30.05 in 10.0 mi NNE 12.7 mph 18.4 mph N/A   Scattered Clouds
1:13 PM 64.4 °F 55.4 °F 73% 30.06 in 10.0 mi North 17.3 mph 20.7 mph N/A   Mostly Cloudy
1:34 PM 60.8 °F 55.4 °F 82% 30.07 in 10.0 mi North 6.9 mph - 0.01 in Rain Light Rain
1:53 PM 60.8 °F 57.2 °F 88% 30.07 in 10.0 mi North 5.8 mph - 0.01 in   Light Drizzle
2:14 PM 62.6 °F 57.2 °F 82% 30.07 in 10.0 mi North 8.1 mph - N/A   Scattered Clouds
2:33 PM 60.8 °F 55.4 °F 82% 30.08 in 10.0 mi NNW 11.5 mph 17.3 mph N/A   Mostly Cloudy
2:54 PM 62.6 °F 55.4 °F 77% 30.08 in 10.0 mi NNW 11.5 mph 18.4 mph N/A   Scattered Clouds
3:13 PM 62.6 °F 55.4 °F 77% 30.08 in 10.0 mi North 11.5 mph 18.4 mph N/A   Scattered Clouds
3:34 PM 60.8 °F 53.6 °F 77% 30.08 in 10.0 mi North 9.2 mph 16.1 mph N/A   Scattered Clouds
3:53 PM 60.8 °F 53.6 °F 77% 30.08 in 10.0 mi North 10.4 mph 18.4 mph N/A   Scattered Clouds
4:13 PM 60.8 °F 53.6 °F 77% 30.09 in 10.0 mi NNW 11.5 mph 16.1 mph N/A   Clear
4:34 PM 60.8 °F 53.6 °F 77% 30.10 in 10.0 mi North 8.1 mph 18.4 mph N/A   Scattered Clouds
4:53 PM 60.8 °F 53.6 °F 77% 30.10 in 10.0 mi North 9.2 mph 16.1 mph N/A   Clear
5:34 PM 60.8 °F 53.6 °F 77% 30.10 in 10.0 mi NNW 9.2 mph 17.3 mph N/A   Clear
5:54 PM 60.8 °F 53.6 °F 77% 30.10 in 10.0 mi North 8.1 mph - N/A   Clear
6:13 PM 60.8 °F 51.8 °F 72% 30.10 in 10.0 mi North 6.9 mph - N/A   Clear
6:34 PM 60.8 °F 51.8 °F 72% 30.10 in 10.0 mi North 8.1 mph - N/A   Clear
6:53 PM 59.0 °F 51.8 °F 77% 30.10 in 10.0 mi North 6.9 mph - N/A   Clear
7:13 PM 59.0 °F 51.8 °F 77% 30.10 in 10.0 mi North 6.9 mph - N/A   Clear
7:34 PM 59.0 °F 51.8 °F 77% 30.09 in 10.0 mi North 6.9 mph - N/A   Clear
7:53 PM 57.2 °F 50.0 °F 77% 30.09 in 10.0 mi North 8.1 mph - N/A   Clear
8:14 PM 57.2 °F 50.0 °F 77% 30.09 in 10.0 mi North 5.8 mph - N/A   Clear
8:34 PM 55.4 °F 50.0 °F 82% 30.09 in 10.0 mi North 4.6 mph - N/A   Clear
8:54 PM 55.4 °F 50.0 °F 82% 30.09 in 10.0 mi North 5.8 mph - N/A   Clear
9:13 PM 55.4 °F 50.0 °F 82% 30.10 in 10.0 mi North 5.8 mph - N/A   Clear
9:33 PM 55.4 °F 50.0 °F 82% 30.10 in 10.0 mi NNW 4.6 mph - N/A   Clear
9:53 PM 53.6 °F 48.2 °F 82% 30.09 in 10.0 mi NNW 3.5 mph - N/A   Clear
10:14 PM 53.6 °F 48.2 °F 82% 30.09 in 10.0 mi NNW 3.5 mph - N/A   Clear
10:34 PM 51.8 °F 48.2 °F 88% 30.09 in 10.0 mi NNW 3.5 mph - N/A   Clear
11:13 PM 50.0 °F 46.4 °F 87% 30.08 in 10.0 mi North 3.5 mph - N/A   Clear
11:34 PM 51.8 °F 48.2 °F 88% 30.08 in 10.0 mi NNW 4.6 mph - N/A   Clear
11:53 PM 51.8 °F 48.2 °F 88% 30.08 in 10.0 mi NNW 5.8 mph - N/A   Clear